Location: ?????????
(54.7630°N, 39.4991°E)
Time: 11:40:58
(UTC+00:00)

Cosmos 1680 Rocket - Pass Details

Date: 14 April 2026
Orbit: 756 x 776 km, 74.1° (Epoch: 9 May)

Event Time Altitude Azimuth Distance (km) Brightness Sun altitude
Rises 17:18:07 0° 330° (NNW) 3,237 7.9 -8.0°
Reaches altitude 10° 17:20:32 10° 326° (NNW) 2,304 7.1 -8.3°
Maximum altitude 17:25:36 54° 251° (WSW) 917 4.2 -8.9°
Drops below altitude 10° 17:30:38 10° 174° (S) 2,281 5.6 -9.6°
Enters shadow 17:32:56 - 171° (S) 3,165 6.3 -9.8°
